Location: Carrières
(48.9495°N, 2.0407°E)
Time: 14:56:17
(UTC+00:00)

Lacrosse 5 - Pass Details

Date: 28 January 2023
Orbit: 714 x 724 km, 57.0° (Epoch: 09 March)

Event Time Altitude Azimuth Distance (km) Brightness Sun altitude
Rises 20:18:39 0° 229° (SW) 3,127 5.6 -35.3°
Reaches altitude 10° 20:21:01 10° 228° (SW) 2,210 4.7 -35.7°
Enters shadow 20:21:35 13° 228° (SW) 1,998 4.4 -35.8°
